Ellsworth AFB, SD

2:12 AM MDT on October 19, 2017 (GMT -0600)
Ellsworth Air Force Base

Weather History for KRCA - July, 2013

Change the Weather History Date:

Friday, July 26, 2013

  Actual Average Record
Temperature  
Mean Temperature 62 °F -  
Max Temperature 73 °F 85 °F 93 °F (1998)
Min Temperature 52 °F 60 °F 51 °F (2005)
Degree Days  
Heating Degree Days 2    
Growing Degree Days 12 (Base 50)    
Moisture  
Dew Point 47 °F    
Average Humidity 63    
Maximum Humidity 94    
Minimum Humidity 38    
Precipitation  
Precipitation 0.24 in - - ()
Sea Level Pressure  
Sea Level Pressure 30.24 in    
Wind  
Wind Speed 7 mph (NE)    
Max Wind Speed 20 mph    
Max Gust Speed 23 mph    
Visibility 9 miles    
Events Rain , Thunderstorm    
Averages and records for this station are not official NWS values.
T = Trace of Precipitation, MM = Missing Value Source: NWS Daily Summary

Daily Weather History Graph

Daily Weather History Graph

Search for Another Location

Airport or City:

Trip Planner

Search our weather history database for the weather conditions in past years. The results will help you decide how hot, cold, wet, or windy it might be!

Date:

Astronomy

Jul. 26, 2013 Rise Set
Actual Time 5:34 AM MDT 8:23 PM MDT
Civil Twilight 5:00 AM MDT 8:56 PM MDT
Nautical Twilight 4:17 AM MDT 9:39 PM MDT
Astronomical Twilight 3:27 AM MDT 10:29 PM MDT
Moon 10:24 PM MDT (7/26) 10:25 AM MDT (7/26)
Length of Visible Light 15h 56m
Length of Day
14h 49m
Waning Gibbous, 79% of the Moon is Illuminated
Jul 26
Waning Gibbous
Jul 29
Last Quarter
Aug 6
New
Aug 14
First Quarter
Aug 20
Full

Hourly Weather History & Observations

Time (MDT) Temp. Dew Point Humidity Pressure Visibility Wind Dir Wind Speed Gust Speed Precip Events Conditions
12:58 AM 60.8 °F 48.2 °F 63% 30.20 in 10.0 mi NNE 10.4 mph - N/A   Clear
1:58 AM 55.4 °F 48.2 °F 77% 30.20 in 6.2 mi NNE 10.4 mph - N/A   Clear
2:55 AM 59.0 °F 46.4 °F 63% 30.26 in 10.0 mi NNW 6.9 mph - N/A   Scattered Clouds
2:58 AM - - N/A% - - NE 5.8 mph - N/A   Unknown
2:59 AM 57.2 °F 46.4 °F 67% 30.26 in 10.0 mi NE 5.8 mph - N/A   Scattered Clouds
3:58 AM 56.3 °F 46.9 °F 71% 30.23 in 10.0 mi North 4.6 mph - N/A Thunderstorm Mostly Cloudy
4:05 AM 57.2 °F 48.2 °F 72% 30.31 in 10.0 mi NNW 19.6 mph 23.0 mph N/A Rain , Thunderstorm Light Rain
4:07 AM 55.4 °F 48.2 °F 77% 30.29 in 9.0 mi West 8.1 mph 23.0 mph N/A Rain Light Rain
4:09 AM 55.4 °F 48.2 °F 77% 30.25 in 5.0 mi SSW 11.5 mph 23.0 mph N/A Rain , Thunderstorm Light Thunderstorms and Rain
4:14 AM 53.6 °F 50.0 °F 88% 30.29 in 2.0 mi NW 6.9 mph 23.0 mph N/A Rain , Thunderstorm Heavy Thunderstorms and Rain
4:19 AM 53.6 °F 50.0 °F 88% 30.28 in 2.0 mi NNE 5.8 mph - N/A Rain , Thunderstorm Thunderstorms and Rain
4:24 AM 53.6 °F 50.0 °F 88% 30.28 in 6.0 mi West 4.6 mph - N/A Rain , Thunderstorm Light Thunderstorms and Rain
4:31 AM 53.6 °F 50.0 °F 88% 30.28 in 10.0 mi West 3.5 mph - N/A Thunderstorm Thunderstorm
4:32 AM 53.6 °F 50.0 °F 88% 30.28 in 10.0 mi West 2.3 mph - N/A Thunderstorm Overcast
4:58 AM 52.9 °F 48.0 °F 84% 30.24 in 10.0 mi West 4.6 mph - 0.24 in   Overcast
5:52 AM 53.6 °F 51.8 °F 94% 30.30 in 10.0 mi NW 4.6 mph - N/A   Light Drizzle
5:58 AM 53.6 °F 51.3 °F 92% 30.29 in 10.0 mi West 5.8 mph - 0.00 in   Light Drizzle
6:11 AM 53.6 °F 50.0 °F 88% 30.28 in 10.0 mi WNW 3.5 mph - N/A   Mostly Cloudy
6:58 AM 54.5 °F 50.5 °F 86% 30.29 in 10.0 mi NW 2.3 mph - 0.00 in   Mostly Cloudy
7:58 AM 57.2 °F 46.2 °F 67% 30.30 in 10.0 mi East 4.6 mph - N/A   Partly Cloudy
8:58 AM 59.4 °F 47.3 °F 64% 30.32 in 10.0 mi NNE 3.5 mph - N/A   Overcast
9:58 AM 60.3 °F 47.1 °F 62% 30.28 in 10.0 mi Variable 1.2 mph - N/A   Scattered Clouds
10:58 AM 63.3 °F 46.0 °F 53% 30.28 in 10.0 mi Calm Calm - N/A   Partly Cloudy
11:58 AM 65.3 °F 47.8 °F 53% 30.26 in 10.0 mi ENE 5.8 mph - N/A   Clear
12:58 PM 67.6 °F 47.8 °F 49% 30.28 in 10.0 mi Variable 6.9 mph - N/A   Scattered Clouds
1:58 PM 68.7 °F 48.0 °F 48% 30.26 in 10.0 mi SE 4.6 mph - N/A   Clear
2:58 PM 70.2 °F 47.3 °F 44% 30.21 in 10.0 mi East 8.1 mph - N/A   Clear
3:58 PM 72.3 °F 47.5 °F 41% 30.20 in 10.0 mi East 5.8 mph - N/A   Mostly Cloudy
4:58 PM 72.1 °F 47.7 °F 42% 30.19 in 10.0 mi East 11.5 mph - N/A   Clear
5:27 PM 73.4 °F 46.4 °F 38% 30.21 in 10.0 mi ESE 4.6 mph - N/A Rain Light Rain
5:35 PM 71.6 °F 46.4 °F 41% 30.21 in 10.0 mi East 6.9 mph - N/A   Clear
5:53 PM 71.6 °F 44.6 °F 38% 30.21 in 10.0 mi ENE 6.9 mph - N/A   Light Drizzle
5:55 PM 71.6 °F 44.6 °F 38% 30.20 in 10.0 mi East 8.1 mph - N/A   Clear
5:58 PM 71.6 °F 44.6 °F 38% 30.18 in 10.0 mi ENE 8.1 mph - 0.00 in   Clear
6:49 PM 71.6 °F 44.6 °F 38% 30.20 in 10.0 mi East 6.9 mph - N/A Rain Light Rain
6:58 PM 71.2 °F 44.6 °F 38% 30.17 in 10.0 mi East 8.1 mph - 0.00 in Rain Light Rain
7:00 PM 69.8 °F 44.6 °F 40% 30.20 in 10.0 mi East 10.4 mph - N/A   Clear
7:58 PM 68.0 °F 45.3 °F 44% 30.17 in 10.0 mi East 12.7 mph - 0.00 in   Clear
8:58 PM 63.3 °F 47.1 °F 56% 30.19 in 10.0 mi East 8.1 mph - N/A   Scattered Clouds
9:58 PM 60.6 °F 46.9 °F 61% 30.22 in 10.0 mi East 6.9 mph - N/A   Clear
10:58 PM 57.6 °F 46.8 °F 67% 30.22 in 10.0 mi SE 3.5 mph - N/A   Clear
11:58 PM 58.1 °F 45.9 °F 64% 30.22 in 10.0 mi Variable 1.2 mph - N/A   Clear